EW3017 Weather Reports


time (UTC)temp
C
wind
direction
speed
KPH
gust
KPH
rain 1hr
cm
rain 24hr
cm
rain mn
cm
humidity
%
barometer
mb
20260504130516 12 0 0.0 8.0 0.00 0.00 0.00 54 1013.4
20260504110513 6 0 0.0 0.0 0.00 0.00 0.00 76 1013.4
20260504100512 5 0 0.0 0.0 0.00 0.00 0.00 71 1013.7
20260504081531 6 0 0.0 0.0 0.00 0.00 0.00 66 1013.9
20260504081012 6 0 0.0 0.0 0.00 0.00 0.00 65 1013.9
20260504080513 6 0 0.0 0.0 0.00 0.00 0.00 65 1014.0
20260504050516 7 0 0.0 0.0 0.00 0.00 0.00 61 1014.0
20260504045515 8 0 0.0 0.0 0.00 0.00 0.00 59 1014.0
20260504045015 7 0 0.0 0.0 0.00 0.00 0.00 59 1014.0
20260504044532 8 0 0.0 0.0 0.00 0.00 0.00 61 1014.0
20260504044015 8 0 0.0 0.0 0.00 0.00 0.00 58 1014.0
20260504043519 8 0 0.0 0.0 0.00 0.00 0.00 57 1014.0
20260504043031 8 0 0.0 0.0 0.00 0.00 0.00 57 1014.1
20260504042514 8 0 0.0 0.0 0.00 0.00 0.00 58 1014.1
20260504042044 8 0 0.0 0.0 0.00 0.00 0.00 57 1014.0
20260504041534 8 0 0.0 0.0 0.00 0.00 0.00 57 1014.1
20260504041013 8 0 0.0 0.0 0.00 0.00 0.00 58 1014.1
20260504040513 8 0 0.0 0.0 0.00 0.00 0.00 57 1014.0
20260504040033 8 0 0.0 0.0 0.00 0.00 0.00 55 1014.1
20260504035514 8 0 0.0 0.0 0.00 0.00 0.00 55 1014.1
20260504035013 9 0 0.0 0.0 0.00 0.00 0.00 56 1014.0
20260504034542 9 0 0.0 0.0 0.00 0.00 0.00 55 1014.0
20260504034012 8 0 0.0 0.0 0.00 0.00 0.00 55 1013.9
20260504033516 8 0 0.0 0.0 0.00 0.00 0.00 56 1013.8
20260504033033 8 0 0.0 0.0 0.00 0.00 0.00 56 1013.8
20260504032513 8 0 0.0 0.0 0.00 0.00 0.00 56 1013.8
20260504032015 8 0 0.0 0.0 0.00 0.00 0.00 57 1013.9
20260504031530 8 0 0.0 0.0 0.00 0.00 0.00 58 1013.9
20260504031012 8 0 0.0 0.0 0.00 0.00 0.00 58 1013.8
20260504030512 9 0 0.0 0.0 0.00 0.00 0.00 56 1013.8
20260504030038 10 0 0.0 0.0 0.00 0.00 0.00 53 1013.8
20260504025512 10 0 0.0 0.0 0.00 0.00 0.00 54 1013.8
20260504025013 10 0 0.0 0.0 0.00 0.00 0.00 54 1013.8
20260504024530 10 0 0.0 0.0 0.00 0.00 0.00 52 1013.8
20260504024017 10 0 0.0 0.0 0.00 0.00 0.00 52 1013.8
20260504023514 10 0 0.0 0.0 0.00 0.00 0.00 52 1013.8
20260504023030 10 0 0.0 0.0 0.00 0.00 0.00 53 1013.8
20260504022513 10 0 0.0 0.0 0.00 0.00 0.00 53 1013.8
20260504022011 10 0 0.0 0.0 0.00 0.00 0.00 52 1013.8
20260504021532 10 0 0.0 0.0 0.00 0.00 0.00 52 1013.8
20260504021013 10 0 0.0 0.0 0.00 0.00 0.00 52 1013.8
20260504020512 10 0 0.0 0.0 0.00 0.00 0.00 52 1013.8
20260504020038 10 0 0.0 0.0 0.00 0.00 0.00 53 1013.9
20260504015514 10 0 0.0 0.0 0.00 0.00 0.00 52 1013.8
20260504015017 10 0 0.0 0.0 0.00 0.00 0.00 50 1013.9
20260504014532 11 0 0.0 0.0 0.00 0.00 0.00 49 1013.8
20260504014014 11 0 0.0 0.0 0.00 0.00 0.00 49 1013.9
20260504013512 11 0 0.0 0.0 0.00 0.00 0.00 48 1013.8
20260504013029 11 0 0.0 0.0 0.00 0.00 0.00 48 1013.8
20260504012512 11 0 0.0 0.0 0.00 0.00 0.00 48 1013.7
20260504012012 11 0 0.0 0.0 0.00 0.00 0.00 47 1013.7
20260504011531 11 0 0.0 0.0 0.00 0.00 0.00 47 1013.6
20260504011011 11 0 0.0 0.0 0.00 0.00 0.00 46 1013.6
20260504010513 11 0 0.0 0.0 0.00 0.00 0.00 46 1013.5
20260504010030 11 0 0.0 0.0 0.00 0.00 0.00 46 1013.5
20260504005513 12 0 0.0 0.0 0.00 0.00 0.00 45 1013.5
20260504005013 12 0 0.0 0.0 0.00 0.00 0.00 45 1013.5
20260504004531 12 0 0.0 0.0 0.00 0.00 0.00 45 1013.5
20260504004015 12 0 0.0 0.0 0.00 0.00 0.00 44 1013.4
20260504003511 12 0 0.0 0.0 0.00 0.00 0.00 44 1013.4
20260504003030 12 0 0.0 0.0 0.00 0.00 0.00 43 1013.4
20260504002512 12 0 0.0 0.0 0.00 0.00 0.00 43 1013.3
20260504002013 12 0 0.0 0.0 0.00 0.00 0.00 43 1013.3
20260504001533 13 0 0.0 0.0 0.00 0.00 0.00 43 1013.2
20260504001013 13 0 0.0 0.0 0.00 0.00 0.00 42 1013.2
20260504000513 13 0 0.0 12.9 0.00 0.00 0.00 42 1013.0
20260504000033 13 0 0.0 12.9 0.00 0.00 0.00 42 1012.9
20260503235513 13 0 3.2 16.1 0.00 0.00 0.00 40 1012.8
20260503235010 13 0 1.6 16.1 0.00 0.00 0.00 41 1012.8
20260503234534 13 0 0.0 17.7 0.00 0.00 0.00 40 1012.8
20260503234013 14 300 4.8 17.7 0.00 0.00 0.00 40 1012.7
20260503233511 14 0 4.8 17.7 0.00 0.00 0.00 39 1012.7
20260503233033 14 0 4.8 19.3 0.00 0.00 0.00 39 1012.7
20260503232511 14 302 9.7 19.3 0.00 0.00 0.00 39 1012.7
20260503232012 14 328 11.3 25.7 0.00 0.00 0.00 39 1012.6
20260503231544 14 316 12.9 25.7 0.00 0.00 0.00 39 1012.6
20260503231013 14 314 16.1 25.7 0.00 0.00 0.00 38 1012.7
20260503230514 14 300 12.9 20.9 0.00 0.00 0.00 39 1012.6
20260503230030 14 297 12.9 20.9 0.00 0.00 0.00 39 1012.5
20260503225512 14 0 4.8 20.9 0.00 0.00 0.00 40 1012.5
20260503225013 14 318 9.7 20.9 0.00 0.00 0.00 39 1012.6
20260503224531 14 319 11.3 22.5 0.00 0.00 0.00 39 1012.5
20260503224014 14 308 14.5 25.7 0.00 0.00 0.00 39 1012.5
20260503223513 14 331 14.5 25.7 0.00 0.00 0.00 39 1012.5
20260503223030 14 324 16.1 25.7 0.00 0.00 0.00 38 1012.5
20260503222513 14 306 11.3 22.5 0.00 0.00 0.00 39 1012.6
20260503222012 14 0 11.3 20.9 0.00 0.00 0.00 39 1012.6
20260503221535 14 345 14.5 20.9 0.00 0.00 0.00 39 1012.6
20260503221012 15 306 9.7 19.3 0.00 0.00 0.00 39 1012.5
20260503220513 15 0 3.2 20.9 0.00 0.00 0.00 40 1012.6
20260503220037 15 0 11.3 20.9 0.00 0.00 0.00 38 1012.6
20260503215515 15 297 12.9 32.2 0.00 0.00 0.00 38 1012.6
20260503215012 15 331 14.5 32.2 0.00 0.00 0.00 38 1012.6
20260503214531 15 339 14.5 32.2 0.00 0.00 0.00 38 1012.5
20260503214014 15 309 16.1 25.7 0.00 0.00 0.00 37 1012.5
20260503213513 15 325 14.5 32.2 0.00 0.00 0.00 38 1012.5
20260503213047 15 333 22.5 32.2 0.00 0.00 0.00 38 1012.4
20260503212513 14 332 14.5 30.6 0.00 0.00 0.00 41 1012.4
20260503212012 15 301 16.1 35.4 0.00 0.00 0.00 39 1012.5
20260503211533 15 334 17.7 35.4 0.00 0.00 0.00 38 1012.4
20260503211011 14 330 19.3 29.0 0.00 0.00 0.00 39 1012.5
20260503210513 15 321 16.1 25.7 0.00 0.00 0.00 39 1012.6
20260503210035 15 333 8.0 19.3 0.00 0.00 0.00 40 1012.5
20260503205517 15 318 8.0 30.6 0.00 0.00 0.00 39 1012.5
20260503205015 15 321 8.0 30.6 0.00 0.00 0.00 40 1012.5
20260503204550 15 290 16.1 32.2 0.00 0.00 0.00 40 1012.5
20260503204013 15 304 17.7 32.2 0.00 0.00 0.00 40 1012.4
20260503203512 14 352 22.5 32.2 0.00 0.00 0.00 40 1012.5
20260503203035 14 302 17.7 30.6 0.00 0.00 0.00 40 1012.5
20260503202513 14 332 12.9 29.0 0.00 0.00 0.00 41 1012.6
20260503202013 14 315 17.7 29.0 0.00 0.00 0.00 40 1012.6
20260503201530 14 328 17.7 30.6 0.00 0.00 0.00 39 1012.6
20260503201013 14 351 16.1 38.6 0.00 0.00 0.00 39 1012.7
20260503200513 14 346 16.1 38.6 0.00 0.00 0.00 39 1012.7
20260503200030 14 315 24.1 38.6 0.00 0.00 0.00 39 1012.9
20260503195512 14 308 12.9 30.6 0.00 0.00 0.00 40 1012.8
20260503195013 14 360 11.3 30.6 0.00 0.00 0.00 40 1012.9
20260503194530 14 312 14.5 29.0 0.00 0.00 0.00 39 1013.1
20260503194014 13 0 11.3 29.0 0.00 0.00 0.00 42 1013.1
20260503193514 14 15 20.9 29.0 0.00 0.00 0.00 39 1013.2
20260503193030 14 316 14.5 25.7 0.00 0.00 0.00 39 1013.3
20260503192517 14 336 16.1 32.2 0.00 0.00 0.00 42 1013.3
20260503192014 13 303 14.5 32.2 0.00 0.00 0.00 41 1013.3
20260503191537 13 360 17.7 32.2 0.00 0.00 0.00 41 1013.4
20260503191016 13 325 9.7 29.0 0.00 0.00 0.00 41 1013.4
20260503190514 13 308 17.7 40.2 0.00 0.00 0.00 40 1013.5
20260503190033 13 331 17.7 40.2 0.00 0.00 0.00 39 1013.5
20260503185516 13 319 22.5 40.2 0.00 0.00 0.00 38 1013.5
20260503185013 14 352 16.1 30.6 0.00 0.00 0.00 40 1013.6
20260503184604 13 360 11.3 27.4 0.00 0.00 0.00 40 1013.7
20260503184018 13 9 19.3 27.4 0.00 0.00 0.00 40 1013.7
20260503183514 14 297 12.9 24.1 0.00 0.00 0.00 41 1013.8
20260503183042 13 338 8.0 32.2 0.00 0.00 0.00 39 1013.8
20260503182515 13 351 4.8 32.2 0.00 0.00 0.00 40 1013.7
20260503182016 13 36 16.1 32.2 0.00 0.00 0.00 40 1013.7
20260503181532 13 0 3.2 27.4 0.00 0.00 0.00 39 1013.8
20260503181015 13 327 17.7 27.4 0.00 0.00 0.00 40 1013.8
20260503180514 13 5 8.0 30.6 0.00 0.00 0.00 42 1013.9
20260503180033 12 331 8.0 35.4 0.00 0.00 0.00 41 1013.8
20260503175520 12 352 19.3 35.4 0.00 0.00 0.00 39 1013.9
20260503175013 12 339 20.9 35.4 0.00 0.00 0.00 41 1014.0
20260503174541 12 27 9.7 29.0 0.00 0.00 0.00 39 1014.0
20260503174017 12 0 9.7 29.0 0.00 0.00 0.00 40 1014.0
20260503173516 12 13 19.3 30.6 0.00 0.00 0.00 41 1014.0
20260503173030 12 326 14.5 30.6 0.00 0.00 0.00 43 1014.1
20260503172513 12 360 17.7 30.6 0.00 0.00 0.00 44 1014.2
20260503172015 12 69 14.5 45.1 0.00 0.00 0.00 40 1014.1
20260503171533 12 321 17.7 45.1 0.00 0.00 0.00 42 1014.3
20260503171018 12 360 20.9 45.1 0.00 0.00 0.00 40 1014.0
20260503170515 12 360 12.9 30.6 0.00 0.00 0.00 42 1014.5
20260503151012 9 350 12.9 37.0 0.00 0.00 0.00 49 1015.5
20260503150514 9 360 24.1 37.0 0.00 0.00 0.00 47 1015.4